Wind_Speed
28 28 29 29 29 30 31 31 31 31 32 33 33 34 35 35 35 35 36 36 36 37 37 36 36 36 37 37 37 37 37 37 37 36 36 36 37 37 38 38 38 38 38
30 31 31 31 32 32 32 33 32 33 33 33 34 35 35 36 36 37 37 37 37 38 38 38 39 39 39 39 39 39 39 39 39 39 39 39 39 39 40 40 40 40 40
31 32 32 33 33 33 33 33 34 34 34 34 35 35 36 37 38 38 38 39 39 40 40 41 41 41 42 42 42 41 41 41 41 42 41 41 41 42 41 41 42 42 42
33 33 33 34 34 34 34 35 35 35 35 36 36 36 37 38 39 39 40 40 40 41 42 42 42 42 43 43 43 43 43 43 43 43 43 43 43 43 44 44 44 44 44
35 35 35 36 36 36 36 36 36 37 37 38 39 39 39 39 40 40 41 41 41 41 41 42 42 42 43 44 44 44 45 45 45 44 45 45 45 46 46 46 46 46 46
36 36 37 37 37 38 38 38 38 39 39 40 40 40 40 41 41 41 41 42 42 42 41 42 42 42 43 44 45 45 46 46 46 46 46 46 46 47 47 47 47 47 47
36 37 37 38 38 39 39 40 40 41 41 41 41 41 41 42 42 41 42 42 42 42 42 43 43 43 43 43 44 45 45 46 46 46 46 46 46 46 47 47 46 47 47
38 38 38 39 39 40 40 41 41 42 42 43 43 42 42 42 43 43 43 43 43 43 43 43 44 44 44 45 45 45 45 45 46 46 46 47 47 47 48 48 48 48 48
39 39 40 40 40 40 41 41 42 43 42 42 43 43 43 42 42 43 43 44 44 44 44 44 44 45 46 46 46 46 46 45 45 46 47 47 48 48 49 48 48 48 49
39 39 40 41 41 42 42 42 43 43 43 43 43 43 43 43 43 43 43 44 44 44 44 44 44 44 45 45 44 45 46 46 46 46 46 46 47 48 48 48 48 49 49
40 40 41 41 41 41 42 42 43 43 43 43 44 44 44 44 44 44 43 43 44 44 45 45 45 45 44 44 45 46 47 47 47 47 47 47 48 48 49 48 49 49 50
40 41 41 42 41 41 41 41 42 42 43 44 44 44 44 44 44 44 44 44 44 45 46 46 46 45 45 45 45 46 46 47 48 48 48 48 49 49 49 50 50 50 51
41 41 41 41 42 42 42 42 43 43 43 43 44 44 44 44 44 45 45 45 45 46 46 46 46 46 46 46 46 46 47 48 48 49 50 50 51 51 51 52 52 52 52
41 41 41 42 42 43 43 44 45 45 44 45 44 43 43 44 45 45 45 45 45 44 45 45 46 46 46 47 47 47 48 49 49 50 50 51 52 52 52 52 52 52 53
41 42 43 43 44 44 45 45 45 45 45 46 46 45 44 44 45 46 46 46 46 46 45 45 45 45 46 47 47 47 48 48 49 50 50 51 51 51 52 52 52 52 52
43 43 44 44 44 44 45 45 45 45 46 46 46 46 46 46 45 46 46 46 47 46 45 45 45 44 44 45 46 47 47 48 49 50 51 51 51 51 52 52 52 52 51
44 44 43 43 43 44 44 44 44 44 45 45 46 47 47 47 46 46 45 45 46 46 46 45 45 45 45 45 46 46 47 48 49 50 50 51 51 51 51 51 50 50 51
45 44 44 44 44 43 43 43 43 44 44 45 45 46 46 47 46 45 45 46 46 46 45 44 44 45 45 46 46 47 48 48 47 48 49 50 50 49 49 49 49 50 50
44 44 44 43 43 43 43 43 43 44 44 45 45 46 45 45 45 45 45 45 45 45 45 45 45 45 45 46 47 47 48 48 48 49 50 49 49 48 47 47 48 48 48
44 44 43 43 42 42 43 43 44 44 45 45 45 45 45 45 45 45 44 45 45 45 45 45 45 45 46 46 47 47 47 47 48 49 48 47 47 47 46 47 47 47 46
44 44 43 43 43 43 43 43 43 44 44 44 44 44 44 44 44 44 44 44 44 44 44 43 44 45 46 47 47 47 47 48 48 47 47 47 46 46 46 46 47 47 46
44 43 43 43 43 43 43 43 43 44 44 45 44 44 44 43 43 43 44 44 43 43 43 44 44 44 45 46 47 47 47 47 47 46 46 46 47 46 46 46 46 46 46
43 43 43 43 43 44 44 44 44 44 45 45 44 44 43 43 42 42 42 42 43 44 44 44 44 45 45 45 46 46 46 45 45 45 45 44 45 45 44 44 45 45 45
43 43 42 42 43 44 44 44 44 44 44 44 43 43 42 42 43 42 42 42 43 43 44 45 45 45 44 44 44 45 44 44 45 44 43 43 43 44 44 44 44 44 44
41 41 41 41 42 42 43 43 43 42 42 42 41 42 41 42 41 42 42 42 42 43 43 43 43 43 42 42 43 43 43 43 42 42 42 42 42 42 42 43 44 44 44
41 40 40 41 41 41 41 41 41 41 41 40 41 41 40 40 40 40 40 40 40 41 42 42 41 40 40 40 40 41 41 41 40 39 40 40 41 41 41 41 42 42 42
Wind_Direction
264 266 266 267 268 270 270 271 273 275 276 277 277 277 277 276 276 276 276 276 276 276 275 274 274 274 273 273 273 273 273 274 274 274 274 274 274 275 276 275 275 275 274
268 268 269 269 270 271 271 272 273 275 277 278 278 278 278 277 277 276 275 275 275 275 274 273 273 274 273 273 273 273 273 274 274 274 274 273 274 275 276 275 274 274 274
269 268 269 271 271 272 272 273 275 275 277 277 278 279 279 279 279 277 276 275 275 275 274 273 273 273 273 273 273 272 272 273 273 274 274 274 273 274 275 274 274 274 273
270 270 271 272 271 272 273 274 276 276 277 278 279 280 280 280 280 278 277 277 276 275 275 274 274 274 274 273 273 272 272 272 273 273 274 273 273 274 274 275 275 273 273
270 271 272 272 273 273 274 276 277 277 278 279 280 280 281 281 280 279 277 276 276 276 275 274 274 274 274 273 272 272 272 272 272 273 274 274 274 274 274 275 275 274 272
269 271 271 272 273 274 275 276 278 278 278 279 280 281 280 281 280 279 278 277 277 276 275 275 275 275 274 273 272 272 272 273 272 273 274 274 275 275 276 275 275 274 273
269 270 271 271 273 274 275 276 278 278 279 279 280 280 280 281 280 280 279 279 278 277 276 276 276 275 275 274 274 273 273 274 273 274 274 274 274 276 276 276 275 274 273
270 270 270 271 273 275 276 277 278 278 279 279 280 280 280 280 280 280 279 279 278 277 277 276 276 275 274 275 275 274 274 275 275 275 275 274 275 277 276 276 276 275 275
271 271 272 271 273 275 277 278 278 278 279 280 280 280 280 280 280 279 279 279 278 277 276 277 277 277 277 276 276 276 275 275 275 276 276 276 277 277 276 276 276 276 275
271 271 272 272 274 275 278 279 280 279 280 280 280 281 281 280 280 279 279 279 278 278 277 277 278 278 278 277 276 275 275 275 275 276 276 277 277 277 276 276 276 276 275
270 271 272 273 275 277 279 280 280 281 281 281 281 281 282 281 280 280 279 279 279 278 278 278 278 278 278 278 277 275 275 275 275 276 276 277 278 277 276 276 276 276 276
271 272 274 274 275 276 279 279 280 281 281 281 281 282 281 281 280 280 279 278 279 279 278 278 278 278 278 279 278 277 276 276 276 276 277 277 278 278 277 277 277 277 277
272 273 273 274 275 276 277 278 279 280 280 280 281 282 282 281 281 280 280 279 279 279 279 278 278 278 278 278 278 278 276 276 277 278 278 279 279 279 278 278 277 277 277
274 273 274 274 275 277 277 279 279 279 281 280 281 282 282 282 281 281 281 280 279 279 280 280 279 279 278 278 278 278 277 277 278 279 280 280 280 280 279 278 278 277 276
274 275 276 277 277 277 278 279 280 280 281 281 281 281 283 282 282 281 281 281 280 281 280 280 280 279 278 278 277 277 277 277 278 279 280 281 281 280 279 279 278 278 277
274 275 277 278 278 279 279 280 280 280 281 281 281 281 281 283 282 283 283 283 282 282 281 281 280 280 279 278 277 277 276 277 278 279 280 281 282 281 280 279 279 278 277
274 275 276 277 278 278 279 279 279 280 280 281 281 281 282 283 283 284 283 283 283 282 281 280 279 278 279 279 279 278 277 278 280 280 281 281 282 281 281 280 279 278 276
275 275 276 277 278 278 278 279 279 279 280 281 282 282 283 283 283 283 283 283 283 283 282 280 279 279 279 279 278 278 279 280 280 281 281 281 281 281 281 280 279 279 277
275 276 277 277 278 278 278 278 279 279 280 281 282 283 283 283 283 283 282 283 283 283 282 281 279 279 279 280 280 279 279 280 280 280 281 282 281 281 281 282 281 279 278
275 275 276 276 277 277 278 279 279 280 280 281 283 283 282 283 283 282 282 283 284 284 283 282 281 280 280 280 281 281 280 280 280 280 281 281 281 281 281 282 281 281 280
274 274 275 276 276 277 279 280 281 280 280 281 282 283 283 283 283 283 282 283 283 283 284 283 283 282 282 282 283 282 281 281 280 281 280 280 280 280 281 282 281 282 281
273 273 274 275 276 277 279 280 281 281 280 281 282 283 283 283 283 283 282 282 283 283 284 285 285 284 284 284 284 283 282 281 281 281 281 280 279 280 281 281 281 282 282
272 273 274 274 276 277 278 279 281 281 281 282 282 283 282 283 283 282 282 282 283 284 285 286 286 286 286 285 284 284 283 282 282 281 280 280 280 280 280 281 282 283 282
272 273 273 275 276 277 278 279 281 281 281 282 283 283 283 283 283 283 283 284 284 285 286 286 287 287 286 285 285 286 285 284 283 282 281 281 280 281 281 281 282 283 282
272 273 274 274 275 276 278 279 280 281 281 282 283 283 284 284 284 284 285 285 286 287 288 288 288 288 287 286 286 286 286 286 285 283 281 282 281 281 282 283 283 283 283
272 273 273 275 276 277 278 279 280 280 281 282 283 283 284 285 285 286 287 288 289 290 290 289 288 288 288 287 287 287 288 288 287 284 281 282 283 283 283 283 284 285 284
Height
5801 5802 5802 5803 5803 5804 5804 5804 5804 5804 5804 5804 5803 5803 5802 5802 5801 5801 5801 5800 5800 5799 5799 5799 5799 5798 5798 5798 5798 5798 5798 5798 5798 5798 5798 5798 5797 5797 5797 5797 5796 5796 5795
5795 5796 5796 5797 5797 5797 5797 5797 5797 5797 5796 5796 5795 5795 5794 5793 5793 5792 5792 5792 5791 5791 5790 5790 5789 5789 5789 5789 5789 5789 5789 5789 5789 5789 5789 5788 5788 5788 5788 5787 5787 5786 5786
5788 5789 5789 5789 5790 5790 5790 5790 5789 5789 5789 5788 5788 5787 5786 5785 5784 5783 5783 5783 5782 5781 5781 5780 5780 5780 5779 5779 5779 5779 5779 5779 5779 5779 5779 5778 5778 5778 5777 5777 5777 5776 5776
5781 5781 5782 5782 5782 5782 5782 5782 5782 5781 5781 5780 5779 5778 5777 5776 5775 5774 5773 5773 5772 5771 5770 5770 5769 5769 5769 5768 5768 5768 5768 5768 5768 5768 5768 5767 5767 5767 5767 5766 5766 5765 5765
5773 5774 5774 5774 5774 5774 5774 5774 5773 5773 5772 5771 5770 5769 5768 5767 5765 5764 5763 5762 5762 5761 5760 5759 5759 5758 5758 5757 5757 5757 5757 5757 5757 5756 5756 5756 5756 5755 5755 5754 5754 5753 5753
5766 5766 5766 5766 5766 5765 5765 5765 5764 5763 5763 5762 5761 5760 5759 5757 5756 5754 5753 5752 5751 5750 5749 5749 5748 5748 5747 5746 5746 5745 5745 5745 5745 5745 5744 5744 5744 5743 5743 5742 5741 5741 5741
5757 5757 5757 5757 5757 5756 5756 5755 5755 5754 5753 5752 5751 5750 5749 5747 5746 5745 5744 5742 5741 5740 5739 5738 5737 5737 5736 5735 5734 5734 5733 5733 5733 5733 5732 5732 5732 5731 5730 5729 5729 5728 5728
5748 5748 5748 5748 5747 5747 5746 5745 5745 5744 5743 5741 5741 5739 5739 5739 5736 5735 5733 5732 5731 5730 5728 5727 5726 5725 5725 5723 5722 5722 5722 5721 5721 5720 5720 5720 5720 5719 5717 5717 5716 5715 5715
5738 5738 5738 5738 5737 5737 5736 5735 5734 5734 5733 5731 5729 5729 5728 5727 5726 5725 5723 5721 5720 5719 5717 5716 5715 5714 5712 5711 5710 5710 5710 5709 5709 5709 5708 5708 5707 5706 5705 5704 5703 5702 5701
5728 5728 5728 5728 5728 5727 5726 5725 5724 5723 5722 5721 5719 5718 5717 5715 5715 5714 5713 5710 5709 5707 5706 5705 5703 5702 5700 5699 5698 5698 5698 5697 5697 5697 5696 5695 5694 5693 5692 5691 5690 5689 5689
5719 5718 5718 5718 5717 5717 5716 5715 5713 5712 5711 5710 5708 5707 5705 5704 5703 5702 5701 5700 5698 5696 5694 5693 5692 5691 5689 5688 5687 5686 5685 5685 5685 5684 5683 5682 5681 5680 5679 5678 5678 5677 5676
5709 5709 5708 5708 5707 5706 5705 5704 5703 5702 5700 5699 5698 5696 5694 5693 5691 5690 5689 5688 5686 5685 5683 5681 5680 5678 5677 5676 5674 5673 5672 5672 5671 5671 5670 5669 5668 5667 5666 5665 5664 5663 5662
5699 5698 5698 5697 5696 5696 5695 5694 5693 5691 5690 5688 5687 5685 5683 5682 5680 5678 5677 5676 5674 5673 5671 5669 5667 5666 5664 5663 5661 5660 5659 5659 5658 5658 5657 5656 5655 5653 5652 5651 5650 5649 5648
5689 5688 5687 5687 5686 5685 5683 5682 5681 5680 5678 5677 5676 5674 5672 5670 5668 5666 5665 5663 5662 5661 5659 5657 5655 5653 5651 5650 5648 5647 5647 5646 5646 5645 5644 5642 5641 5639 5638 5637 5635 5634 5633
5679 5678 5677 5676 5675 5674 5672 5671 5670 5668 5667 5665 5664 5662 5661 5659 5657 5655 5653 5651 5649 5648 5647 5645 5642 5640 5638 5637 5636 5635 5634 5634 5633 5631 5630 5629 5627 5625 5624 5622 5621 5619 5618
5668 5667 5666 5665 5663 5662 5661 5659 5658 5657 5655 5654 5652 5651 5649 5647 5645 5643 5640 5638 5636 5634 5633 5632 5630 5627 5625 5624 5623 5622 5622 5621 5620 5618 5617 5615 5613 5611 5609 5607 5606 5604 5603
5656 5655 5654 5653 5652 5650 5649 5648 5646 5645 5643 5642 5640 5638 5637 5635 5633 5631 5628 5626 5623 5621 5620 5619 5617 5615 5613 5612 5611 5609 5608 5607 5607 5605 5603 5601 5599 5597 5595 5593 5591 5589 5588
5644 5643 5642 5641 5639 5638 5637 5636 5634 5633 5631 5630 5628 5626 5625 5623 5621 5619 5616 5614 5612 5609 5607 5606 5605 5603 5601 5600 5599 5597 5596 5594 5593 5591 5589 5587 5585 5582 5580 5578 5576 5575 5573
5632 5631 5630 5629 5627 5626 5625 5624 5623 5621 5620 5618 5616 5615 5613 5611 5609 5607 5604 5602 5599 5597 5594 5593 5592 5590 5589 5587 5586 5585 5583 5581 5580 5577 5575 5573 5571 5569 5567 5565 5562 5561 5559
5620 5619 5618 5617 5616 5615 5613 5612 5611 5610 5608 5606 5605 5603 5601 5599 5597 5594 5592 5590 5587 5585 5582 5580 5579 5578 5576 5575 5573 5571 5570 5568 5566 5564 5561 5559 5557 5555 5553 5551 5549 5547 5545
5608 5608 5607 5605 5604 5603 5602 5601 5599 5598 5596 5595 5593 5591 5589 5587 5584 5582 5580 5578 5576 5573 5571 5569 5567 5565 5564 5562 5560 5558 5556 5554 5552 5550 5548 5546 5544 5543 5540 5538 5535 5533 5531
5596 5596 5595 5594 5593 5592 5590 5589 5587 5586 5585 5583 5581 5579 5577 5575 5572 5570 5568 5566 5564 5562 5559 5557 5555 5553 5551 5549 5547 5544 5542 5541 5540 5538 5535 5533 5531 5529 5527 5525 5522 5520 5518
5584 5584 5583 5582 5581 5580 5579 5577 5575 5574 5573 5571 5569 5567 5565 5563 5561 5558 5556 5554 5552 5550 5548 5545 5543 5541 5539 5537 5534 5532 5529 5527 5525 5523 5521 5520 5518 5516 5514 5512 5509 5507 5505
5572 5572 5571 5570 5569 5568 5567 5566 5564 5562 5561 5559 5558 5556 5554 5552 5549 5547 5545 5543 5540 5538 5536 5533 5531 5528 5526 5523 5521 5519 5516 5514 5512 5509 5507 5507 5505 5503 5501 5499 5496 5494 5492
5560 5560 5559 5558 5558 5557 5555 5554 5553 5551 5549 5548 5546 5545 5542 5540 5538 5536 5534 5532 5529 5527 5523 5521 5518 5516 5513 5511 5508 5506 5504 5502 5500 5498 5495 5494 5493 5491 5490 5487 5484 5481 5479
5549 5548 5548 5547 5546 5545 5544 5543 5541 5540 5538 5536 5535 5533 5531 5529 5527 5525 5522 5520 5518 5515 5512 5509 5507 5504 5502 5499 5496 5494 5491 5489 5487 5486 5484 5482 5480 5478 5478 5476 5473 5469 5467